ATLAS 5 CENTAUR R/B

基本信息
目录编号:
31702
目录名称:
ATLAS 5 CENTAUR R/B
国际标识:
2007-027B
轨道中心:
EARTH
物体状态:
在轨
发射日期:
2007-06-15 UTC
国别:
美国 (US)
轨道信息
数据来源: 国际轨道数据
星历时间: 2026-09-14T22:16:50+0800
半长轴: 7077.669km
偏心率: 0.0492399
轨道倾角: 63.306°
近地点辐角: 45.307°
升交点赤经: 311.639°
平近点角: 318.704°
近地点: 351.028km
远地点: 1048.036km
周期: 98.763分钟
每日圈数: 14.580334
详细信息
发射场:
AFETR
轨道高度:
LEO
数据来源:
AOE Integration Group
参考系:
TEME
时间系统:
UTC
历元类型:
SGP4
2D轨道图
3D轨道图
轨道高度分析图
轨道倾角分析图
轨道综合分析图
查看轨道综合分析图